TUI005 USPP-EDDL

Flight info

Callsign TUI005
Flight time 4h 29m
Altitude 36000
Route GEBSI1M GEBSI M60 BAPTA P874 BAPUN N869 DURTI/K0824F380 L29 LAFAT/N0447F380 DCT SUWGI T727 DENKO N858 SUBIX Z20 MAG Z92 ABGUS DCT ABILU DCT DOMUX DOMUX1A
Aircraft B38M/M-SDE1FGHILORVWXY/HB1

Departure

Time 2026-05-07 18:34
Airport Perm International Airport (USPP)

Arrival

Time 2026-05-07 23:04
Airport Düsseldorf Airport (EDDL)
Time Latitude Longitude Altitude Speed Heading
2026-05-07 18:28 57.91546 56.01234 399 ft 0 kts 316°
2026-05-07 18:30 57.91539 56.01246 398 ft 5 kts 316°
2026-05-07 18:30 57.91513 56.01294 394 ft 5 kts 316°
2026-05-07 18:30 57.91508 56.01354 396 ft 5 kts 226°
2026-05-07 18:30 57.91510 56.01359 399 ft 1 kts 226°
2026-05-07 18:31 57.91469 56.01286 396 ft 16 kts 215°
2026-05-07 18:31 57.91346 56.01403 395 ft 28 kts 136°
2026-05-07 18:31 57.91223 56.01613 397 ft 17 kts 154°
2026-05-07 18:31 57.91104 56.01463 400 ft 28 kts 227°
2026-05-07 18:32 57.90939 56.01139 396 ft 40 kts 225°
2026-05-07 18:32 57.90723 56.00718 393 ft 49 kts 226°
2026-05-07 18:32 57.90538 56.00353 395 ft 23 kts 233°
2026-05-07 18:32 57.90489 56.00190 395 ft 6 kts 185°
2026-05-07 18:33 57.90478 56.00252 393 ft 10 kts 49°
2026-05-07 18:33 57.90500 56.00293 395 ft 3 kts 45°
2026-05-07 18:33 57.90616 56.00516 397 ft 60 kts 46°
2026-05-07 18:33 57.91085 56.01428 399 ft 131 kts 45°
2026-05-07 18:34 57.91852 56.02899 477 ft 181 kts 43°
2026-05-07 18:34 57.92750 56.04659 1232 ft 191 kts 44°
2026-05-07 18:34 57.93648 56.06412 2339 ft 185 kts 43°
2026-05-07 18:34 57.94592 56.08245 2877 ft 205 kts 42°
2026-05-07 18:35 57.95741 56.09975 3346 ft 221 kts 22°
2026-05-07 18:35 57.97271 56.10391 4019 ft 226 kts 349°
2026-05-07 18:35 57.98708 56.09219 4885 ft 229 kts 322°
2026-05-07 18:35 57.99952 56.07265 5665 ft 236 kts 317°
2026-05-07 18:36 58.01205 56.05244 6533 ft 239 kts 315°
2026-05-07 18:36 58.02471 56.03181 7338 ft 242 kts 315°
2026-05-07 18:36 58.03749 56.01083 8146 ft 249 kts 314°
2026-05-07 18:36 58.05098 55.98860 8693 ft 266 kts 314°
2026-05-07 18:37 58.06507 55.96534 9514 ft 270 kts 313°
2026-05-07 18:37 58.07927 55.94186 10308 ft 276 kts 313°
2026-05-07 18:37 58.09416 55.91719 10710 ft 295 kts 313°
2026-05-07 18:37 58.11002 55.89092 11166 ft 310 kts 314°
2026-05-07 18:38 58.12646 55.86362 11759 ft 318 kts 314°
2026-05-07 18:38 58.14141 55.83316 12549 ft 315 kts 298°
2026-05-07 18:38 58.15010 55.79525 13277 ft 317 kts 289°
2026-05-07 18:38 58.15791 55.75591 13946 ft 321 kts 289°
2026-05-07 18:39 58.16566 55.71611 14660 ft 322 kts 289°
2026-05-07 18:39 58.17331 55.67616 15372 ft 324 kts 289°
2026-05-07 18:39 58.18096 55.63574 15985 ft 328 kts 289°
2026-05-07 18:39 58.18864 55.59489 16623 ft 331 kts 289°
2026-05-07 18:40 58.19637 55.55358 17246 ft 333 kts 289°
2026-05-07 18:40 58.20415 55.51191 17873 ft 336 kts 289°
2026-05-07 18:40 58.21197 55.46991 18441 ft 339 kts 289°
2026-05-07 18:40 58.21984 55.42752 18948 ft 342 kts 289°
2026-05-07 18:41 58.22775 55.38485 19448 ft 345 kts 289°
2026-05-07 18:41 58.23563 55.34219 19942 ft 348 kts 289°
2026-05-07 18:41 58.24366 55.29866 20425 ft 351 kts 289°
2026-05-07 18:41 58.25173 55.25478 20914 ft 354 kts 289°
2026-05-07 18:42 58.25987 55.21048 21399 ft 357 kts 289°
2026-05-07 18:42 58.26804 55.16586 21867 ft 360 kts 289°
2026-05-07 18:42 58.27628 55.12082 22312 ft 363 kts 289°
2026-05-07 18:42 58.28461 55.07512 22715 ft 367 kts 289°
2026-05-07 18:43 58.29297 55.02911 23263 ft 368 kts 288°
2026-05-07 18:43 58.30133 54.98303 23718 ft 371 kts 288°
2026-05-07 18:43 58.30977 54.93642 24091 ft 373 kts 288°
2026-05-07 18:43 58.31823 54.88966 24484 ft 375 kts 288°
2026-05-07 18:44 58.32621 54.84222 24855 ft 377 kts 287°
2026-05-07 18:44 58.33399 54.79449 25245 ft 379 kts 287°
2026-05-07 18:44 58.34186 54.74641 25618 ft 381 kts 287°
2026-05-07 18:44 58.34975 54.69819 25986 ft 383 kts 287°
2026-05-07 18:45 58.35759 54.65026 26342 ft 385 kts 287°
2026-05-07 18:45 58.36554 54.60146 26695 ft 387 kts 287°
2026-05-07 18:45 58.37352 54.55234 27043 ft 389 kts 287°
2026-05-07 18:45 58.38151 54.50304 27388 ft 391 kts 286°
2026-05-07 18:46 58.38953 54.45344 27719 ft 393 kts 286°
2026-05-07 18:46 58.39756 54.40358 28066 ft 394 kts 286°
2026-05-07 18:46 58.40300 54.36974 28321 ft 395 kts 286°
2026-05-07 18:46 58.41104 54.31958 28707 ft 396 kts 286°
2026-05-07 18:47 58.41908 54.26936 29076 ft 397 kts 286°
2026-05-07 18:47 58.42712 54.21890 29358 ft 399 kts 286°
2026-05-07 18:47 58.43520 54.16808 29669 ft 401 kts 286°
2026-05-07 18:47 58.44330 54.11701 29964 ft 402 kts 286°
2026-05-07 18:48 58.45138 54.06588 30226 ft 404 kts 285°
2026-05-07 18:48 58.45939 54.01506 30483 ft 405 kts 285°
2026-05-07 18:48 58.46752 53.96340 30722 ft 407 kts 285°
2026-05-07 18:48 58.47576 53.91079 30971 ft 409 kts 285°
2026-05-07 18:49 58.48377 53.85941 31209 ft 410 kts 285°
2026-05-07 18:49 58.49190 53.80716 31489 ft 410 kts 285°
2026-05-07 18:49 58.50003 53.75481 31823 ft 409 kts 285°
2026-05-07 18:49 58.50809 53.70265 32154 ft 409 kts 285°
2026-05-07 18:50 58.51614 53.65052 32513 ft 408 kts 285°
2026-05-07 18:50 58.52412 53.59862 32923 ft 405 kts 285°
2026-05-07 18:50 58.53202 53.54709 33315 ft 402 kts 285°
2026-05-07 18:50 58.53986 53.49579 33606 ft 402 kts 285°
2026-05-07 18:51 58.54770 53.44432 33896 ft 401 kts 285°
2026-05-07 18:51 58.55549 53.39301 34152 ft 401 kts 285°
2026-05-07 18:51 58.56315 53.34243 34357 ft 401 kts 285°
2026-05-07 18:51 58.57091 53.29103 34554 ft 402 kts 285°
2026-05-07 18:52 58.57865 53.23958 34753 ft 402 kts 285°
2026-05-07 18:52 58.58638 53.18807 34952 ft 402 kts 285°
2026-05-07 18:52 58.59411 53.13639 35137 ft 403 kts 285°
2026-05-07 18:52 58.60180 53.08478 35337 ft 403 kts 285°
2026-05-07 18:53 58.60950 53.03296 35468 ft 404 kts 285°
2026-05-07 18:53 58.61720 52.98102 35614 ft 406 kts 285°
2026-05-07 18:53 58.62489 52.92893 35817 ft 406 kts 285°
2026-05-07 18:53 58.63255 52.87695 36013 ft 405 kts 285°
2026-05-07 18:54 58.64011 52.82550 36017 ft 403 kts 285°
2026-05-07 18:54 58.64828 52.72038 36024 ft 399 kts 268°
2026-05-07 18:55 58.64619 52.61327 36009 ft 402 kts 269°
2026-05-07 18:55 58.64354 52.50597 36009 ft 402 kts 268°
2026-05-07 18:56 58.64058 52.39937 36010 ft 402 kts 268°
2026-05-07 18:56 58.63747 52.29229 36016 ft 402 kts 268°
2026-05-07 18:57 58.63426 52.18486 36000 ft 403 kts 268°
2026-05-07 18:57 58.63098 52.07700 36016 ft 406 kts 268°
2026-05-07 18:58 58.62761 51.96891 36016 ft 406 kts 268°
2026-05-07 18:58 58.62417 51.86102 36043 ft 403 kts 267°
2026-05-07 18:59 58.62066 51.75417 36026 ft 400 kts 267°
2026-05-07 18:59 58.61709 51.64806 36022 ft 401 kts 267°
2026-05-07 19:00 58.61342 51.54138 36022 ft 401 kts 267°
2026-05-07 19:00 58.60970 51.43466 36016 ft 401 kts 267°
2026-05-07 19:01 58.60605 51.32736 36026 ft 404 kts 267°
2026-05-07 19:01 58.60228 51.21988 36029 ft 403 kts 267°
2026-05-07 19:02 58.59844 51.11251 36028 ft 403 kts 267°
2026-05-07 19:02 58.59450 51.00518 36033 ft 403 kts 266°
2026-05-07 19:03 58.59050 50.89861 36030 ft 403 kts 266°
2026-05-07 19:03 58.58638 50.79130 36063 ft 403 kts 266°
2026-05-07 19:04 58.58221 50.68487 36020 ft 399 kts 266°
2026-05-07 19:04 58.57796 50.57846 36043 ft 401 kts 266°
2026-05-07 19:05 58.57554 50.47184 36042 ft 400 kts 272°
2026-05-07 19:05 58.57661 50.36513 36040 ft 401 kts 271°
2026-05-07 19:06 58.57714 50.25835 36040 ft 401 kts 270°
2026-05-07 19:06 58.57830 50.09813 36045 ft 401 kts 271°
2026-05-07 19:07 58.57909 49.99193 36044 ft 401 kts 271°
2026-05-07 19:07 58.57980 49.88520 36028 ft 401 kts 271°
2026-05-07 19:08 58.58042 49.77793 36080 ft 403 kts 270°
2026-05-07 19:08 58.58095 49.67115 36053 ft 398 kts 270°
2026-05-07 19:09 58.58139 49.56481 36053 ft 399 kts 270°
2026-05-07 19:09 58.58174 49.45844 36051 ft 399 kts 270°
2026-05-07 19:10 58.58198 49.35204 36051 ft 399 kts 270°
2026-05-07 19:10 58.58209 49.24636 36053 ft 399 kts 270°
2026-05-07 19:11 58.58211 49.14003 36055 ft 399 kts 270°
2026-05-07 19:11 58.58205 49.03350 36038 ft 400 kts 270°
2026-05-07 19:12 58.58191 48.92655 36058 ft 402 kts 270°
2026-05-07 19:12 58.58167 48.81962 36060 ft 401 kts 269°
2026-05-07 19:13 58.58135 48.71257 36064 ft 401 kts 269°
2026-05-07 19:13 58.58089 48.60558 36064 ft 401 kts 269°
2026-05-07 19:14 58.58032 48.49929 36061 ft 401 kts 269°
2026-05-07 19:14 58.57967 48.39226 36061 ft 401 kts 269°
2026-05-07 19:15 58.57893 48.28529 36066 ft 401 kts 269°
2026-05-07 19:15 58.57771 48.17819 36066 ft 401 kts 268°
2026-05-07 19:16 58.57632 48.07118 36064 ft 401 kts 268°
2026-05-07 19:16 58.57485 47.96420 36068 ft 402 kts 268°
2026-05-07 19:17 58.57329 47.85733 36096 ft 401 kts 268°
2026-05-07 19:17 58.57166 47.75095 36064 ft 398 kts 268°
2026-05-07 19:18 58.56994 47.64484 36069 ft 399 kts 268°
2026-05-07 19:18 58.56814 47.53872 36070 ft 399 kts 268°
2026-05-07 19:19 58.56660 47.43246 36050 ft 399 kts 269°
2026-05-07 19:19 58.56552 47.32661 36075 ft 401 kts 268°
2026-05-07 19:20 58.56430 47.21968 36072 ft 401 kts 268°
2026-05-07 19:20 58.56298 47.11287 36075 ft 401 kts 268°
2026-05-07 19:21 58.56157 47.00601 36075 ft 401 kts 268°
2026-05-07 19:21 58.56008 46.89920 36105 ft 400 kts 268°
2026-05-07 19:22 58.55851 46.79329 36082 ft 397 kts 268°
2026-05-07 19:22 58.55686 46.68766 36080 ft 397 kts 268°
2026-05-07 19:23 58.55511 46.58184 36067 ft 397 kts 268°
2026-05-07 19:23 58.55328 46.47577 36081 ft 399 kts 268°
2026-05-07 19:24 58.55136 46.36948 36081 ft 399 kts 267°
2026-05-07 19:24 58.54936 46.26371 36084 ft 399 kts 267°
2026-05-07 19:25 58.54726 46.15743 36084 ft 399 kts 267°
2026-05-07 19:25 58.54507 46.05121 36082 ft 399 kts 267°
2026-05-07 19:26 58.54279 45.94497 36110 ft 398 kts 267°
2026-05-07 19:26 58.54048 45.83963 36086 ft 395 kts 267°
2026-05-07 19:27 58.53534 45.73513 36078 ft 394 kts 255°
2026-05-07 19:27 58.52169 45.63303 36073 ft 396 kts 256°
2026-05-07 19:28 58.50802 45.53071 36084 ft 397 kts 256°
2026-05-07 19:28 58.49422 45.42851 36079 ft 397 kts 256°
2026-05-07 19:29 58.48040 45.32697 36081 ft 397 kts 256°
2026-05-07 19:29 58.46643 45.22495 36077 ft 397 kts 256°
2026-05-07 19:30 58.45237 45.12302 36081 ft 397 kts 256°
2026-05-07 19:30 58.43823 45.02106 36079 ft 398 kts 256°
2026-05-07 19:31 58.42394 44.91875 36077 ft 399 kts 255°
2026-05-07 19:31 58.40957 44.81660 36075 ft 398 kts 255°
2026-05-07 19:32 58.39516 44.71472 36083 ft 396 kts 255°
2026-05-07 19:32 58.38084 44.61420 36079 ft 395 kts 255°
2026-05-07 19:33 58.36637 44.51319 36072 ft 395 kts 255°
2026-05-07 19:33 58.35180 44.41215 36049 ft 396 kts 255°
2026-05-07 19:34 58.33711 44.31094 36076 ft 398 kts 255°
2026-05-07 19:34 58.32227 44.20933 36074 ft 397 kts 255°
2026-05-07 19:35 58.30991 44.12516 36076 ft 397 kts 255°
2026-05-07 19:35 58.29253 44.00755 36078 ft 397 kts 254°
2026-05-07 19:36 58.27750 43.90652 36078 ft 397 kts 254°
2026-05-07 19:36 58.26485 43.82195 36076 ft 397 kts 254°
2026-05-07 19:37 58.24977 43.72169 36066 ft 398 kts 254°
2026-05-07 19:37 58.23442 43.62028 36071 ft 399 kts 254°
2026-05-07 19:38 58.21901 43.51911 36100 ft 399 kts 253°
2026-05-07 19:38 58.20359 43.41847 36077 ft 396 kts 253°
2026-05-07 19:39 58.18813 43.31817 36075 ft 396 kts 253°
2026-05-07 19:39 58.17258 43.21786 36076 ft 396 kts 253°
2026-05-07 19:40 58.15706 43.11832 36058 ft 396 kts 253°
2026-05-07 19:40 58.14135 43.01820 36078 ft 398 kts 253°
2026-05-07 19:41 58.12551 42.91780 36079 ft 397 kts 253°
2026-05-07 19:41 58.10961 42.81765 36074 ft 398 kts 253°
2026-05-07 19:42 58.09364 42.71764 36075 ft 398 kts 253°
2026-05-07 19:42 58.07759 42.61764 36076 ft 398 kts 252°
2026-05-07 19:43 58.06145 42.51773 36071 ft 398 kts 252°
2026-05-07 19:43 58.04522 42.41781 36059 ft 398 kts 252°
2026-05-07 19:44 58.02887 42.31771 36065 ft 400 kts 252°
2026-05-07 19:44 58.01243 42.21768 36078 ft 399 kts 252°
2026-05-07 19:45 57.99596 42.11804 36068 ft 398 kts 252°
2026-05-07 19:45 57.97951 42.01901 36058 ft 398 kts 252°
2026-05-07 19:46 57.96290 41.91951 36057 ft 398 kts 252°
2026-05-07 19:46 57.94621 41.82002 36062 ft 398 kts 252°
2026-05-07 19:47 57.92947 41.72067 36046 ft 399 kts 252°
2026-05-07 19:47 57.91255 41.62079 36047 ft 400 kts 252°
2026-05-07 19:48 57.89565 41.52176 36056 ft 400 kts 252°
2026-05-07 19:48 57.87870 41.42212 36052 ft 400 kts 252°
2026-05-07 19:49 57.86169 41.32258 36055 ft 400 kts 252°
2026-05-07 19:49 57.84462 41.22317 36046 ft 400 kts 252°
2026-05-07 19:50 57.82748 41.12392 36048 ft 400 kts 251°
2026-05-07 19:50 57.81038 41.02537 36062 ft 400 kts 252°
2026-05-07 19:51 57.79306 40.92619 36046 ft 400 kts 252°
2026-05-07 19:51 57.77569 40.82720 36050 ft 400 kts 251°
2026-05-07 19:52 57.75821 40.72817 36032 ft 400 kts 251°
2026-05-07 19:52 57.74068 40.62937 36025 ft 399 kts 251°
2026-05-07 19:53 57.72308 40.53064 36008 ft 400 kts 251°
2026-05-07 19:53 57.70548 40.43255 36029 ft 401 kts 251°
2026-05-07 19:54 57.68767 40.33371 36011 ft 401 kts 251°
2026-05-07 19:54 57.66978 40.23499 36013 ft 401 kts 251°
2026-05-07 19:55 57.65182 40.13635 36012 ft 401 kts 251°
2026-05-07 19:55 57.63381 40.03785 36019 ft 401 kts 251°
2026-05-07 19:56 57.61567 39.93937 36009 ft 401 kts 251°
2026-05-07 19:56 57.59746 39.84091 36028 ft 402 kts 251°
2026-05-07 19:57 57.57914 39.74236 36002 ft 401 kts 251°
2026-05-07 19:57 57.56081 39.64421 36004 ft 401 kts 251°
2026-05-07 19:58 57.54238 39.54603 36009 ft 401 kts 250°
2026-05-07 19:58 57.52400 39.44865 36003 ft 401 kts 250°
2026-05-07 19:59 57.50542 39.35069 36012 ft 402 kts 250°
2026-05-07 19:59 57.48678 39.25284 35983 ft 401 kts 250°
2026-05-07 20:00 57.46802 39.15484 35996 ft 403 kts 250°
2026-05-07 20:00 57.44917 39.05678 36002 ft 403 kts 250°
2026-05-07 20:01 57.43025 38.95886 35992 ft 403 kts 250°
2026-05-07 20:01 57.41124 38.86097 35993 ft 403 kts 250°
2026-05-07 20:02 57.39218 38.76331 35988 ft 403 kts 250°
2026-05-07 20:02 57.37304 38.66575 35990 ft 403 kts 250°
2026-05-07 20:03 57.35384 38.56835 35989 ft 402 kts 250°
2026-05-07 20:03 57.33471 38.47182 35977 ft 402 kts 250°
2026-05-07 20:04 57.31538 38.37465 35975 ft 402 kts 250°
2026-05-07 20:04 57.29590 38.27763 35968 ft 402 kts 250°
2026-05-07 20:05 57.27632 38.18064 35964 ft 402 kts 249°
2026-05-07 20:05 57.25671 38.08395 35967 ft 402 kts 249°
2026-05-07 20:06 57.23713 37.98793 35947 ft 402 kts 249°
2026-05-07 20:06 57.21726 37.89090 35957 ft 404 kts 249°
2026-05-07 20:07 57.19734 37.79409 35955 ft 404 kts 249°
2026-05-07 20:07 57.17735 37.69740 35947 ft 403 kts 249°
2026-05-07 20:08 57.15525 37.60234 35967 ft 403 kts 245°
2026-05-07 20:08 57.13158 37.50919 35938 ft 403 kts 245°
2026-05-07 20:09 57.10795 37.41555 35925 ft 404 kts 245°
2026-05-07 20:10 57.07227 37.27456 35931 ft 405 kts 245°
2026-05-07 20:10 57.04842 37.18086 35940 ft 405 kts 245°
2026-05-07 20:11 57.02465 37.08781 35932 ft 405 kts 245°
2026-05-07 20:11 57.00067 36.99435 35933 ft 405 kts 245°
2026-05-07 20:12 56.97660 36.90092 35929 ft 405 kts 245°
2026-05-07 20:12 56.95236 36.80751 35921 ft 406 kts 245°
2026-05-07 20:13 56.92798 36.71412 35920 ft 406 kts 245°
2026-05-07 20:13 56.90357 36.62097 35908 ft 406 kts 245°
2026-05-07 20:14 56.87916 36.52841 35913 ft 406 kts 244°
2026-05-07 20:14 56.85453 36.43547 35905 ft 406 kts 244°
2026-05-07 20:15 56.82986 36.34274 35905 ft 406 kts 244°
2026-05-07 20:15 56.80509 36.24996 35905 ft 407 kts 244°
2026-05-07 20:16 56.78022 36.15713 35914 ft 406 kts 244°
2026-05-07 20:16 56.75538 36.06478 35909 ft 405 kts 244°
2026-05-07 20:17 56.73046 35.97254 35900 ft 405 kts 244°
2026-05-07 20:17 56.70550 35.88057 35899 ft 405 kts 244°
2026-05-07 20:18 56.68067 35.78929 35899 ft 405 kts 244°
2026-05-07 20:18 56.65568 35.69738 35892 ft 406 kts 244°
2026-05-07 20:19 56.63056 35.60539 35894 ft 406 kts 244°
2026-05-07 20:19 56.60521 35.51365 35895 ft 406 kts 244°
2026-05-07 20:20 56.57980 35.42202 35894 ft 406 kts 244°
2026-05-07 20:20 56.55446 35.33036 35889 ft 406 kts 244°
2026-05-07 20:21 56.52926 35.23961 35889 ft 406 kts 244°
2026-05-07 20:21 56.50381 35.14831 35898 ft 406 kts 244°
2026-05-07 20:22 56.47827 35.05709 35895 ft 406 kts 243°
2026-05-07 20:22 56.45267 34.96607 35897 ft 406 kts 243°
2026-05-07 20:23 56.42693 34.87535 35891 ft 404 kts 243°
2026-05-07 20:23 56.40123 34.78506 35891 ft 404 kts 243°
2026-05-07 20:24 56.37546 34.69491 35880 ft 404 kts 243°
2026-05-07 20:24 56.35395 34.61991 35895 ft 405 kts 243°
2026-05-07 20:25 56.32380 34.51515 35893 ft 405 kts 243°
2026-05-07 20:25 56.29782 34.42517 35888 ft 405 kts 243°
2026-05-07 20:26 56.27600 34.34986 35888 ft 405 kts 243°
2026-05-07 20:26 56.25007 34.26064 35885 ft 405 kts 243°
2026-05-07 20:27 56.22390 34.17096 35868 ft 405 kts 243°
2026-05-07 20:27 56.19761 34.08121 35883 ft 407 kts 243°
2026-05-07 20:28 56.17122 33.99143 35877 ft 406 kts 243°
2026-05-07 20:28 56.14473 33.90171 35878 ft 406 kts 242°
2026-05-07 20:29 56.11821 33.81219 35874 ft 406 kts 242°
2026-05-07 20:29 56.09164 33.72287 35893 ft 406 kts 242°
2026-05-07 20:30 56.06505 33.63382 35855 ft 404 kts 242°
2026-05-07 20:30 56.03858 33.54550 35871 ft 406 kts 242°
2026-05-07 20:31 56.01182 33.45653 35870 ft 406 kts 242°
2026-05-07 20:31 55.98504 33.36784 35861 ft 406 kts 242°
2026-05-07 20:32 55.95819 33.27926 35860 ft 406 kts 242°
2026-05-07 20:32 55.93127 33.19077 35863 ft 406 kts 242°
2026-05-07 20:33 55.90429 33.10242 35850 ft 406 kts 242°
2026-05-07 20:33 55.87720 33.01396 35863 ft 407 kts 242°
2026-05-07 20:34 55.85293 32.92347 35845 ft 405 kts 256°
2026-05-07 20:34 55.84002 32.82565 35845 ft 407 kts 256°
2026-05-07 20:35 55.82714 32.72768 35862 ft 407 kts 256°
2026-05-07 20:35 55.81450 32.63023 35878 ft 406 kts 256°
2026-05-07 20:36 55.80181 32.53282 35864 ft 404 kts 256°
2026-05-07 20:36 55.78903 32.43533 35856 ft 404 kts 256°
2026-05-07 20:37 55.77616 32.33784 35863 ft 405 kts 256°
2026-05-07 20:37 55.76323 32.24051 35863 ft 405 kts 256°
2026-05-07 20:38 55.75029 32.14382 35869 ft 405 kts 256°
2026-05-07 20:38 55.73721 32.04664 35867 ft 405 kts 256°
2026-05-07 20:39 55.72402 31.94930 35867 ft 405 kts 256°
2026-05-07 20:39 55.71079 31.85228 35896 ft 404 kts 256°
2026-05-07 20:40 55.69763 31.75643 35860 ft 401 kts 255°
2026-05-07 20:40 55.68436 31.66033 35876 ft 402 kts 255°
2026-05-07 20:41 55.67098 31.56410 35878 ft 402 kts 255°
2026-05-07 20:41 55.65751 31.46783 35884 ft 402 kts 255°
2026-05-07 20:42 55.64398 31.37172 35884 ft 402 kts 255°
2026-05-07 20:42 55.63037 31.27566 35888 ft 402 kts 255°
2026-05-07 20:43 55.61671 31.17976 35890 ft 402 kts 255°
2026-05-07 20:43 55.60295 31.08374 35890 ft 402 kts 255°
2026-05-07 20:44 55.58927 30.98867 35884 ft 400 kts 255°
2026-05-07 20:44 55.57477 30.89375 35895 ft 400 kts 254°
2026-05-07 20:45 55.55999 30.79878 35893 ft 400 kts 254°
2026-05-07 20:45 55.54522 30.70405 35894 ft 400 kts 254°
2026-05-07 20:46 55.53036 30.60938 35895 ft 400 kts 253°
2026-05-07 20:46 55.51544 30.51477 35899 ft 400 kts 253°
2026-05-07 20:47 55.50064 30.42027 35903 ft 400 kts 254°
2026-05-07 20:47 55.48635 30.32536 35889 ft 400 kts 254°
2026-05-07 20:48 55.47192 30.23045 35922 ft 401 kts 254°
2026-05-07 20:48 55.45743 30.13571 35904 ft 400 kts 254°
2026-05-07 20:49 55.44287 30.04108 35906 ft 400 kts 254°
2026-05-07 20:49 55.42825 29.94661 35902 ft 400 kts 253°
2026-05-07 20:50 55.41365 29.85281 35904 ft 400 kts 253°
2026-05-07 20:50 55.39888 29.75848 35900 ft 400 kts 253°
2026-05-07 20:51 55.38404 29.66418 35899 ft 400 kts 253°
2026-05-07 20:51 55.36911 29.56987 35889 ft 401 kts 253°
2026-05-07 20:52 55.35407 29.47538 35894 ft 401 kts 253°
2026-05-07 20:52 55.33896 29.38101 35896 ft 400 kts 253°
2026-05-07 20:53 55.32383 29.28702 35899 ft 400 kts 253°
2026-05-07 20:53 55.30860 29.19295 35891 ft 400 kts 253°
2026-05-07 20:54 55.29343 29.09974 35898 ft 400 kts 253°
2026-05-07 20:54 55.27811 29.00597 35889 ft 400 kts 253°
2026-05-07 20:55 55.26269 28.91231 35888 ft 400 kts 253°
2026-05-07 20:55 55.24716 28.81852 35888 ft 400 kts 253°
2026-05-07 20:56 55.23159 28.72491 35884 ft 400 kts 252°
2026-05-07 20:56 55.21593 28.63131 35893 ft 400 kts 252°
2026-05-07 20:57 55.20026 28.53806 35890 ft 399 kts 252°
2026-05-07 20:57 55.18451 28.44489 35878 ft 399 kts 252°
2026-05-07 20:58 55.16880 28.35242 35875 ft 399 kts 252°
2026-05-07 20:58 55.15293 28.25947 35870 ft 399 kts 252°
2026-05-07 20:59 55.14060 28.16477 35879 ft 401 kts 257°
2026-05-07 20:59 55.12949 28.06901 35867 ft 401 kts 257°
2026-05-07 21:00 55.11806 27.97352 35875 ft 401 kts 257°
2026-05-07 21:00 55.10652 27.87813 35865 ft 402 kts 256°
2026-05-07 21:01 55.09496 27.78322 35864 ft 401 kts 256°
2026-05-07 21:01 55.08325 27.68781 35865 ft 401 kts 256°
2026-05-07 21:02 55.07149 27.59262 35863 ft 401 kts 256°
2026-05-07 21:02 55.05966 27.49748 35861 ft 401 kts 256°
2026-05-07 21:03 55.04773 27.40235 35855 ft 402 kts 256°
2026-05-07 21:03 55.03565 27.30687 35856 ft 403 kts 256°
2026-05-07 21:04 55.02350 27.21151 35883 ft 403 kts 256°
2026-05-07 21:04 55.01130 27.11633 35857 ft 401 kts 256°
2026-05-07 21:05 54.99914 27.02207 35859 ft 401 kts 256°
2026-05-07 21:05 54.98683 26.92729 35850 ft 401 kts 256°
2026-05-07 21:06 54.97443 26.83248 35851 ft 401 kts 256°
2026-05-07 21:06 54.96198 26.73782 35859 ft 401 kts 256°
2026-05-07 21:07 54.94944 26.64314 35843 ft 401 kts 256°
2026-05-07 21:07 54.93684 26.54868 35847 ft 401 kts 256°
2026-05-07 21:08 54.92417 26.45426 35859 ft 400 kts 255°
2026-05-07 21:08 54.91160 26.36116 35849 ft 398 kts 255°
2026-05-07 21:09 54.89888 26.26741 35849 ft 398 kts 255°
2026-05-07 21:09 54.88606 26.17381 35850 ft 398 kts 255°
2026-05-07 21:10 54.87319 26.08032 35843 ft 398 kts 255°
2026-05-07 21:10 54.86023 25.98676 35838 ft 398 kts 255°
2026-05-07 21:11 54.84722 25.89340 35829 ft 398 kts 255°
2026-05-07 21:11 54.82530 25.75497 35828 ft 395 kts 245°
2026-05-07 21:12 54.80341 25.66731 35831 ft 396 kts 246°
2026-05-07 21:12 54.78526 25.59444 35835 ft 396 kts 246°
2026-05-07 21:13 54.76331 25.50680 35833 ft 396 kts 246°
2026-05-07 21:13 54.74130 25.41931 35835 ft 396 kts 246°
2026-05-07 21:14 54.71937 25.33243 35831 ft 396 kts 246°
2026-05-07 21:14 54.69721 25.24499 35824 ft 395 kts 246°
2026-05-07 21:15 54.67505 25.15794 35842 ft 395 kts 246°
2026-05-07 21:15 54.65286 25.07108 35832 ft 395 kts 246°
2026-05-07 21:16 54.63076 24.98492 35855 ft 395 kts 245°
2026-05-07 21:16 54.60849 24.89838 35836 ft 394 kts 245°
2026-05-07 21:17 54.58617 24.81203 35837 ft 394 kts 245°
2026-05-07 21:17 54.56381 24.72586 35842 ft 394 kts 245°
2026-05-07 21:18 54.54149 24.64013 35832 ft 395 kts 245°
2026-05-07 21:18 54.51891 24.55378 35848 ft 396 kts 245°
2026-05-07 21:19 54.49623 24.46733 35830 ft 396 kts 245°
2026-05-07 21:19 54.47357 24.38133 35837 ft 395 kts 245°
2026-05-07 21:20 54.45079 24.29517 35831 ft 395 kts 245°
2026-05-07 21:20 54.42799 24.20928 35875 ft 395 kts 245°
2026-05-07 21:21 54.40514 24.12352 35860 ft 394 kts 245°
2026-05-07 21:21 54.38235 24.03831 35825 ft 393 kts 245°
2026-05-07 21:22 54.35946 23.95303 35837 ft 394 kts 245°
2026-05-07 21:22 54.33652 23.86790 35837 ft 393 kts 245°
2026-05-07 21:23 54.31350 23.78278 35836 ft 393 kts 244°
2026-05-07 21:23 54.29045 23.69789 35837 ft 393 kts 244°
2026-05-07 21:24 54.26750 23.61364 35833 ft 393 kts 244°
2026-05-07 21:24 54.24433 23.52893 35828 ft 393 kts 244°
2026-05-07 21:25 54.22109 23.44427 35830 ft 393 kts 244°
2026-05-07 21:25 54.19782 23.35981 35832 ft 392 kts 244°
2026-05-07 21:26 54.17457 23.27572 35835 ft 392 kts 244°
2026-05-07 21:26 54.15125 23.19170 35833 ft 392 kts 244°
2026-05-07 21:27 54.12790 23.10777 35830 ft 392 kts 244°
2026-05-07 21:27 54.10446 23.02379 35830 ft 392 kts 244°
2026-05-07 21:28 54.08100 22.94004 35815 ft 392 kts 244°
2026-05-07 21:28 54.06406 22.85220 35849 ft 393 kts 256°
2026-05-07 21:29 54.05121 22.76165 35825 ft 394 kts 254°
2026-05-07 21:29 54.03807 22.67171 35852 ft 394 kts 254°
2026-05-07 21:30 54.02479 22.58142 35839 ft 394 kts 253°
2026-05-07 21:30 54.01143 22.49113 35834 ft 394 kts 253°
2026-05-07 21:31 53.99798 22.40082 35850 ft 394 kts 253°
2026-05-07 21:31 53.98447 22.31056 35841 ft 393 kts 253°
2026-05-07 21:32 53.97099 22.22099 35841 ft 393 kts 253°
2026-05-07 21:32 53.95736 22.13093 35850 ft 394 kts 253°
2026-05-07 21:33 53.94364 22.04084 35892 ft 394 kts 253°
2026-05-07 21:33 53.92988 21.95095 35833 ft 393 kts 253°
2026-05-07 21:34 53.91605 21.86106 35856 ft 394 kts 253°
2026-05-07 21:34 53.90216 21.77135 35860 ft 393 kts 253°
2026-05-07 21:35 53.88821 21.68170 35853 ft 393 kts 253°
2026-05-07 21:35 53.87428 21.59264 35869 ft 393 kts 253°
2026-05-07 21:36 53.86021 21.50318 35871 ft 393 kts 252°
2026-05-07 21:36 53.85123 21.44634 35872 ft 393 kts 252°
2026-05-07 21:37 53.83706 21.35696 35881 ft 393 kts 252°
2026-05-07 21:37 53.82288 21.26774 35865 ft 392 kts 252°
2026-05-07 21:38 53.80871 21.17870 35878 ft 392 kts 252°
2026-05-07 21:38 53.79447 21.08958 35875 ft 392 kts 252°
2026-05-07 21:39 53.78018 21.00065 35872 ft 392 kts 252°
2026-05-07 21:39 53.76583 20.91179 35878 ft 392 kts 252°
2026-05-07 21:40 53.75141 20.82295 35874 ft 392 kts 252°
2026-05-07 21:40 53.73701 20.73471 35868 ft 392 kts 252°
2026-05-07 21:41 53.72246 20.64604 35853 ft 392 kts 251°
2026-05-07 21:41 53.70782 20.55725 35870 ft 392 kts 251°
2026-05-07 21:42 53.69311 20.46854 35874 ft 392 kts 251°
2026-05-07 21:42 53.67834 20.37993 35871 ft 392 kts 251°
2026-05-07 21:43 53.66350 20.29132 35891 ft 392 kts 251°
2026-05-07 21:43 53.64860 20.20282 35887 ft 392 kts 251°
2026-05-07 21:44 53.63364 20.11438 35927 ft 392 kts 251°
2026-05-07 21:44 53.61867 20.02637 35898 ft 393 kts 251°
2026-05-07 21:45 53.60355 19.93789 35889 ft 393 kts 251°
2026-05-07 21:45 53.58835 19.84939 35887 ft 394 kts 251°
2026-05-07 21:46 53.57301 19.76056 35891 ft 395 kts 250°
2026-05-07 21:46 53.55763 19.67196 35898 ft 394 kts 250°
2026-05-07 21:47 53.54230 19.58403 35907 ft 394 kts 250°
2026-05-07 21:47 53.52680 19.49556 35904 ft 394 kts 250°
2026-05-07 21:48 53.51120 19.40695 35905 ft 396 kts 250°
2026-05-07 21:48 53.49550 19.31815 35908 ft 396 kts 250°
2026-05-07 21:49 53.47973 19.22948 35911 ft 396 kts 250°
2026-05-07 21:49 53.46391 19.14088 35912 ft 396 kts 250°
2026-05-07 21:50 53.44800 19.05220 35910 ft 397 kts 250°
2026-05-07 21:50 53.43200 18.96346 35913 ft 397 kts 250°
2026-05-07 21:51 53.41595 18.87488 35921 ft 397 kts 250°
2026-05-07 21:51 53.39992 18.78685 35927 ft 398 kts 250°
2026-05-07 21:52 53.38365 18.69789 35919 ft 398 kts 250°
2026-05-07 21:52 53.36734 18.60914 35925 ft 398 kts 250°
2026-05-07 21:53 53.35097 18.52052 35924 ft 398 kts 250°
2026-05-07 21:53 53.33453 18.43195 35928 ft 398 kts 249°
2026-05-07 21:54 53.31804 18.34347 35925 ft 398 kts 249°
2026-05-07 21:54 53.30151 18.25523 35932 ft 398 kts 249°
2026-05-07 21:55 53.28488 18.16689 35934 ft 399 kts 249°
2026-05-07 21:55 53.26821 18.07873 35935 ft 400 kts 249°
2026-05-07 21:56 53.25137 17.99014 35934 ft 400 kts 249°
2026-05-07 21:56 53.23450 17.90172 35935 ft 400 kts 249°
2026-05-07 21:57 53.21755 17.81338 35941 ft 400 kts 249°
2026-05-07 21:57 53.20056 17.72515 35938 ft 400 kts 249°
2026-05-07 21:58 53.18348 17.63696 35920 ft 399 kts 249°
2026-05-07 21:58 53.16630 17.54862 35943 ft 402 kts 249°
2026-05-07 21:59 53.14910 17.46056 35940 ft 402 kts 249°
2026-05-07 21:59 53.13173 17.37202 35944 ft 402 kts 249°
2026-05-07 22:00 53.11431 17.28357 35940 ft 402 kts 249°
2026-05-07 22:00 53.09680 17.19503 35941 ft 402 kts 249°
2026-05-07 22:01 53.07922 17.10670 35943 ft 402 kts 248°
2026-05-07 22:01 53.06157 17.01850 35944 ft 402 kts 248°
2026-05-07 22:02 53.04384 16.93018 35947 ft 404 kts 248°
2026-05-07 22:02 53.02902 16.85660 35943 ft 405 kts 248°
2026-05-07 22:03 53.01107 16.76791 35945 ft 405 kts 248°
2026-05-07 22:03 52.99011 16.66481 35943 ft 405 kts 248°
2026-05-07 22:04 52.97495 16.59059 35945 ft 405 kts 248°
2026-05-07 22:04 52.95694 16.50272 35947 ft 405 kts 248°
2026-05-07 22:05 52.93873 16.41433 35946 ft 405 kts 248°
2026-05-07 22:05 52.92044 16.32591 35953 ft 406 kts 248°
2026-05-07 22:06 52.90204 16.23736 35955 ft 406 kts 248°
2026-05-07 22:06 52.88359 16.14899 35941 ft 406 kts 248°
2026-05-07 22:07 52.86503 16.06048 35952 ft 407 kts 248°
2026-05-07 22:07 52.84638 15.97188 35950 ft 407 kts 247°
2026-05-07 22:08 52.82779 15.88387 35955 ft 407 kts 247°
2026-05-07 22:08 52.80525 15.79876 35997 ft 402 kts 238°
2026-05-07 22:09 52.77764 15.71810 35941 ft 403 kts 238°
2026-05-07 22:09 52.74993 15.63750 35952 ft 404 kts 238°
2026-05-07 22:10 52.72212 15.55692 35952 ft 404 kts 238°
2026-05-07 22:10 52.69423 15.47637 35950 ft 405 kts 238°
2026-05-07 22:11 52.66642 15.39628 35952 ft 405 kts 238°
2026-05-07 22:11 52.63839 15.31587 35953 ft 405 kts 238°
2026-05-07 22:12 52.61027 15.23544 35948 ft 405 kts 237°
2026-05-07 22:12 52.58213 15.15518 35951 ft 405 kts 237°
2026-05-07 22:13 52.55387 15.07487 35961 ft 406 kts 237°
2026-05-07 22:13 52.52553 14.99461 35956 ft 406 kts 237°
2026-05-07 22:14 52.49715 14.91445 35951 ft 406 kts 237°
2026-05-07 22:14 52.46891 14.83497 35948 ft 406 kts 237°
2026-05-07 22:15 52.44043 14.75506 35948 ft 406 kts 237°
2026-05-07 22:15 52.41187 14.67514 35947 ft 406 kts 237°
2026-05-07 22:16 52.38396 14.59486 35933 ft 408 kts 245°
2026-05-07 22:16 52.37015 14.50435 35926 ft 413 kts 254°
2026-05-07 22:17 52.35811 14.41254 35955 ft 413 kts 254°
2026-05-07 22:17 52.34635 14.32039 35949 ft 414 kts 254°
2026-05-07 22:18 52.32868 14.18215 35953 ft 414 kts 254°
2026-05-07 22:19 52.31690 14.09073 35951 ft 414 kts 254°
2026-05-07 22:19 52.30489 13.99877 35951 ft 414 kts 254°
2026-05-07 22:20 52.29281 13.90675 35954 ft 415 kts 254°
2026-05-07 22:20 52.28061 13.81439 35947 ft 415 kts 254°
2026-05-07 22:21 52.26837 13.72216 35957 ft 415 kts 254°
2026-05-07 22:21 52.25608 13.62985 35958 ft 415 kts 254°
2026-05-07 22:22 52.24375 13.53776 35959 ft 415 kts 254°
2026-05-07 22:22 52.23140 13.44620 35962 ft 416 kts 253°
2026-05-07 22:23 52.21887 13.35380 35964 ft 418 kts 254°
2026-05-07 22:23 52.20624 13.26130 35959 ft 418 kts 254°
2026-05-07 22:24 52.19353 13.16879 35957 ft 418 kts 254°
2026-05-07 22:24 52.18074 13.07630 35964 ft 418 kts 253°
2026-05-07 22:25 52.16790 12.98391 35958 ft 418 kts 253°
2026-05-07 22:25 52.15494 12.89149 35953 ft 418 kts 253°
2026-05-07 22:26 52.14192 12.79912 35959 ft 419 kts 254°
2026-05-07 22:26 52.12880 12.70666 35955 ft 419 kts 254°
2026-05-07 22:27 52.11559 12.61417 35954 ft 419 kts 254°
2026-05-07 22:27 52.10234 12.52191 35959 ft 419 kts 254°
2026-05-07 22:28 52.08908 12.43015 35951 ft 421 kts 253°
2026-05-07 22:28 52.07558 12.33730 35967 ft 422 kts 254°
2026-05-07 22:29 52.06200 12.24446 35937 ft 423 kts 254°
2026-05-07 22:29 52.04830 12.15140 35950 ft 423 kts 254°
2026-05-07 22:30 52.03453 12.05839 35947 ft 423 kts 254°
2026-05-07 22:30 52.02069 11.96542 35951 ft 423 kts 254°
2026-05-07 22:31 52.00688 11.87327 35950 ft 423 kts 254°
2026-05-07 22:31 51.99244 11.78066 35952 ft 423 kts 252°
2026-05-07 22:32 51.97667 11.68822 35952 ft 425 kts 253°
2026-05-07 22:32 51.96094 11.59572 35952 ft 425 kts 253°
2026-05-07 22:33 51.94515 11.50324 35958 ft 426 kts 253°
2026-05-07 22:33 51.92927 11.41072 35954 ft 426 kts 252°
2026-05-07 22:34 51.91333 11.31834 35962 ft 426 kts 252°
2026-05-07 22:34 51.89727 11.22577 35958 ft 427 kts 252°
2026-05-07 22:35 51.88104 11.13303 35961 ft 428 kts 252°
2026-05-07 22:35 51.86578 11.04051 35953 ft 429 kts 257°
2026-05-07 22:36 51.85366 10.94604 35955 ft 429 kts 256°
2026-05-07 22:36 51.84101 10.85170 35957 ft 429 kts 256°
2026-05-07 22:37 51.82825 10.75752 35963 ft 429 kts 256°
2026-05-07 22:37 51.81540 10.66330 35953 ft 429 kts 256°
2026-05-07 22:38 51.80246 10.56906 35958 ft 430 kts 256°
2026-05-07 22:38 51.78942 10.47471 35960 ft 431 kts 256°
2026-05-07 22:39 51.77630 10.38036 35957 ft 431 kts 256°
2026-05-07 22:39 51.76309 10.28601 35959 ft 431 kts 256°
2026-05-07 22:40 51.74982 10.19171 35970 ft 431 kts 256°
2026-05-07 22:40 51.73648 10.09760 35951 ft 430 kts 256°
2026-05-07 22:41 51.72306 10.00351 35951 ft 430 kts 256°
2026-05-07 22:41 51.70957 9.90953 35959 ft 430 kts 256°
2026-05-07 22:42 51.69599 9.81543 35952 ft 430 kts 256°
2026-05-07 22:42 51.68927 9.76910 35945 ft 417 kts 256°
2026-05-07 22:42 51.68273 9.72418 35814 ft 406 kts 256°
2026-05-07 22:42 51.67641 9.68081 35470 ft 401 kts 256°
2026-05-07 22:43 51.67003 9.63718 34934 ft 400 kts 256°
2026-05-07 22:43 51.66361 9.59344 34377 ft 401 kts 256°
2026-05-07 22:43 51.65718 9.54976 33871 ft 400 kts 256°
2026-05-07 22:43 51.65077 9.50632 33331 ft 398 kts 255°
2026-05-07 22:44 51.64437 9.46301 32844 ft 395 kts 256°
2026-05-07 22:44 51.63800 9.42012 32398 ft 392 kts 256°
2026-05-07 22:44 51.63168 9.37762 31969 ft 388 kts 256°
2026-05-07 22:44 51.62541 9.33554 31523 ft 385 kts 256°
2026-05-07 22:45 51.61917 9.29382 31090 ft 383 kts 256°
2026-05-07 22:45 51.61294 9.25226 30664 ft 380 kts 256°
2026-05-07 22:45 51.60673 9.21096 30241 ft 378 kts 256°
2026-05-07 22:45 51.60055 9.16994 29788 ft 376 kts 256°
2026-05-07 22:46 51.59438 9.12918 29329 ft 374 kts 256°
2026-05-07 22:46 51.58826 9.08877 28926 ft 370 kts 256°
2026-05-07 22:46 51.58226 9.04927 28539 ft 366 kts 256°
2026-05-07 22:46 51.57623 9.00966 28148 ft 363 kts 256°
2026-05-07 22:47 51.57023 8.97036 27767 ft 360 kts 256°
2026-05-07 22:47 51.56427 8.93137 27382 ft 358 kts 256°
2026-05-07 22:47 51.55834 8.89269 26982 ft 355 kts 256°
2026-05-07 22:47 51.55243 8.85428 26635 ft 352 kts 256°
2026-05-07 22:48 51.54656 8.81618 26269 ft 350 kts 256°
2026-05-07 22:48 51.54071 8.77836 25891 ft 347 kts 256°
2026-05-07 22:48 51.53491 8.74088 25542 ft 345 kts 256°
2026-05-07 22:48 51.52913 8.70363 25181 ft 343 kts 256°
2026-05-07 22:49 51.52336 8.66654 24838 ft 341 kts 256°
2026-05-07 22:49 51.51763 8.62974 24487 ft 339 kts 256°
2026-05-07 22:49 51.51190 8.59310 24139 ft 337 kts 256°
2026-05-07 22:49 51.50620 8.55671 23791 ft 335 kts 256°
2026-05-07 22:50 51.50053 8.52057 23425 ft 333 kts 256°
2026-05-07 22:50 51.49495 8.48504 23025 ft 331 kts 257°
2026-05-07 22:50 51.48932 8.44935 22687 ft 329 kts 257°
2026-05-07 22:50 51.48374 8.41400 22346 ft 325 kts 257°
2026-05-07 22:51 51.47818 8.37899 22014 ft 322 kts 257°
2026-05-07 22:51 51.47269 8.34435 21683 ft 319 kts 257°
2026-05-07 22:51 51.46900 8.32113 21463 ft 317 kts 257°
2026-05-07 22:51 51.46358 8.28705 21137 ft 314 kts 257°
2026-05-07 22:52 51.45818 8.25320 20821 ft 314 kts 257°
2026-05-07 22:52 51.45272 8.21893 20505 ft 319 kts 257°
2026-05-07 22:52 51.44724 8.18476 20176 ft 322 kts 257°
2026-05-07 22:52 51.44161 8.14961 19838 ft 321 kts 257°
2026-05-07 22:53 51.43614 8.11550 19517 ft 319 kts 257°
2026-05-07 22:53 51.43063 8.08119 19195 ft 317 kts 257°
2026-05-07 22:53 51.42513 8.04708 18877 ft 315 kts 257°
2026-05-07 22:53 51.41967 8.01323 18555 ft 313 kts 257°
2026-05-07 22:54 51.41421 7.97949 18224 ft 312 kts 257°
2026-05-07 22:54 51.41052 7.94545 17787 ft 310 kts 271°
2026-05-07 22:54 51.41129 7.91117 17475 ft 307 kts 273°
2026-05-07 22:54 51.41201 7.87716 17178 ft 303 kts 273°
2026-05-07 22:55 51.41276 7.84367 16881 ft 300 kts 274°
2026-05-07 22:55 51.41353 7.81048 16576 ft 297 kts 274°
2026-05-07 22:55 51.41430 7.77764 16272 ft 294 kts 274°
2026-05-07 22:55 51.41506 7.74514 15972 ft 291 kts 274°
2026-05-07 22:56 51.41580 7.71288 15681 ft 289 kts 273°
2026-05-07 22:56 51.41653 7.68086 15367 ft 286 kts 273°
2026-05-07 22:56 51.41723 7.64948 15078 ft 284 kts 273°
2026-05-07 22:56 51.41794 7.61806 14789 ft 281 kts 273°
2026-05-07 22:57 51.41862 7.58683 14496 ft 280 kts 273°
2026-05-07 22:57 51.41931 7.55541 14211 ft 285 kts 273°
2026-05-07 22:57 51.41904 7.52324 13720 ft 293 kts 264°
2026-05-07 22:57 51.41656 7.49019 12992 ft 304 kts 264°
2026-05-07 22:58 51.41418 7.45599 12337 ft 313 kts 265°
2026-05-07 22:58 51.41186 7.42097 11689 ft 320 kts 265°
2026-05-07 22:58 51.40956 7.38506 11016 ft 328 kts 265°
2026-05-07 22:58 51.40724 7.34818 10312 ft 336 kts 265°
2026-05-07 22:59 51.40488 7.31045 9553 ft 345 kts 265°
2026-05-07 22:59 51.40249 7.27230 8753 ft 352 kts 265°
2026-05-07 22:59 51.39998 7.23244 7963 ft 358 kts 265°
2026-05-07 22:59 51.39752 7.19352 7197 ft 352 kts 265°
2026-05-07 23:00 51.39508 7.15505 6490 ft 343 kts 265°
2026-05-07 23:00 51.39268 7.11746 5737 ft 336 kts 266°
2026-05-07 23:00 51.39034 7.08079 5002 ft 329 kts 266°
2026-05-07 23:00 51.38753 7.03738 4096 ft 323 kts 266°
2026-05-07 23:01 51.38524 7.00188 3362 ft 318 kts 266°
2026-05-07 23:01 51.38080 6.96789 2914 ft 308 kts 244°
2026-05-07 23:01 51.36909 6.94078 2778 ft 286 kts 234°
2026-05-07 23:01 51.35715 6.91614 2489 ft 274 kts 234°
2026-05-07 23:02 51.34574 6.89309 2154 ft 263 kts 233°
2026-05-07 23:02 51.33465 6.87045 1771 ft 251 kts 234°
2026-05-07 23:02 51.32461 6.84898 1335 ft 234 kts 234°
2026-05-07 23:02 51.31516 6.82867 941 ft 217 kts 236°
2026-05-07 23:03 51.30675 6.80968 583 ft 202 kts 236°
2026-05-07 23:03 51.29885 6.79246 304 ft 182 kts 234°
2026-05-07 23:03 51.29171 6.77759 139 ft 156 kts 234°
2026-05-07 23:03 51.28615 6.76570 133 ft 100 kts 233°
2026-05-07 23:04 51.28364 6.76082 132 ft 32 kts 210°
2026-05-07 23:04 51.28239 6.76051 131 ft 11 kts 172°
2026-05-07 23:04 51.28166 6.76081 132 ft 11 kts 202°
2026-05-07 23:04 51.28098 6.76038 132 ft 12 kts 161°
2026-05-07 23:05 51.28020 6.76057 132 ft 12 kts 185°
2026-05-07 23:05 51.27956 6.76050 133 ft 1 kts 174°
2026-05-07 23:05 51.27943 6.76077 133 ft 7 kts 95°
2026-05-07 23:05 51.27942 6.76160 133 ft 1 kts 91°
2026-05-07 23:06 51.27942 6.76166 133 ft 0 kts 91°